www.pogodaiklimat.ru

Погода и климат >> Архив погоды >> Литва >> Шилуте


ПОГОДА в Шилуте

  • Прогноз погоды в Шилуте
  • Монитор погоды в Шилуте

АРХИВ ПОГОДЫ в Шилуте

Время (UTC), дата Ветер
(напр.,м/с)
 
Видим.   Явления Облачность Т
(С)
Тd
(С)
f
(%)
Тe
(С)
Тes
(С)
Комфортность P
(гПа)
Po
(гПа)
Тmin
(С)
Tmax
(С)
R
(мм)
R24
(мм)
S
(см)
03 17.03 ЮВ 4-6
{6}
20 км 10/10 600 м
[]
+2.0 +0.8 92 -3 -3 1001.4 1000.8
06 17.03 ЮВ 6-9
{9}
19 км слаб. дождь 10/10 300 м
[]
+3.2 +2.1 92 -3 -3 1000.1 999.5 +1.4 2
09 17.03 Ю 6-8
{10}
11 км слаб. ливневой дождь 10/10 100 м
[]
+4.4 +3.8 96 -1 -1 999.4 998.8
12 17.03 Ю 5-7
{9}
11 км 9/9 1500 м
[]
+7.9 +6.1 88 +4 +4 998.5 997.9 0.9
15 17.03 Ю 5-7
{9}
16 км 9/0 2000 м
[]
+9.4 +6.7 83 +6 +6 998.3 997.7
18 17.03 Ю 5-7
{8}
20 км в посл. час дождь 10/10 1000 м
[]
+9.0 +5.3 78 +6 +6 998.4 997.8 +9.6 0.9
21 17.03 З 4-5
{14}
20 км в посл. час дождь 10/10 1000 м
[]
+4.8 +2.9 87 +1 +1 1001.0 1000.4
00 18.03 Ю 3-4
{5}
20 км 9/0
[]
+3.9 +2.7 92 0 0 1002.0 1001.4 1
03 18.03 ЮЗ 5-7
{7}
20 км 9/9 600 м
[]
+4.6 +2.9 89 -0 -0 1002.1 1001.5
06 18.03 Ю 4-5
{8}
20 км 6/0
[]
+3.8 +2.4 91 -1 -0 1003.5 1002.9 +3.7 1
09 18.03 ЮЗ 7-10
{11}
20 км 9/9 1000 м
[]
+5.5 +1.8 77 0 +1 1004.9 1004.3
12 18.03 ЮЗ 10-14
{14}
20 км 10/10 1000 м
[]
+5.8 +0.3 68 0 0 1006.1 1005.5
15 18.03 ЮЗ 8-12
{14}
20 км 9/0 2000 м
[]
+6.5 -0.3 62 +2 +2 1006.1 1005.5
18 18.03 Ю 8-11
{13}
20 км 9/9 1000 м
[]
+6.3 -0.3 63 +1 +1 1007.0 1006.4 +6.9
21 18.03 ЮЗ 7-10
{16}
20 км в посл. час дождь 9/9 600 м
[]
+3.8 +1.7 86 -2 -2 1008.4 1007.8
00 19.03 ЮЗ 8-11
{11}
20 км 9/9 300 м
[]
+3.9 +1.5 84 -2 -2 1009.5 1008.9
03 19.03 ЮЗ 9-12
{12}
20 км в посл. час дождь 10/10 300 м
[]
+3.7 +1.7 87 -3 -3 1010.5 1009.9
06 19.03 З 5-7
{12}
20 км слаб. ливневой дождь 10/10 300 м
[]
+2.4 +0.5 87 -3 -3 1013.3 1012.7 +1.7 0.6
09 19.03 З 6-9
{10}
20 км в посл. час дождь 9/9 300 м
[]
+3.6 +1.1 84 -2 -2 1016.2 1015.6
12 19.03 З 8-11
{11}
20 км 9/9 300 м
[]
+3.7 +0.4 79 -3 -2 1019.2 1018.6 0.2
15 19.03 З 5-7
{11}
20 км в посл. час дождь 9/9 1000 м
[]
+3.1 +1.1 87 -2 -2 1021.6 1021.0
18 19.03 З 4-7
{8}
20 км 8/8 1500 м
[]
+2.2 -0.2 84 -3 -3 1023.5 1022.9 +4.5 0.5
21 19.03 СЗ 2-2
{8}
20 км 9/9 1000 м
[]
+1.2 -1.9 80 -2 -2 1025.5 1024.8
00 20.03 З 4-5
{5}
20 км ясно +1.1 -0.2 91 -4 -4 1026.3 1025.6
03 20.03 З 2-3
{5}
20 км ясно +0.6 -1.0 89 -3 -3 1026.8 1026.1
06 20.03 ЮЗ 5-7
{7}
19 км 10/10 100 м
[]
+2.2 +1.3 94 -3 -3 1027.5 1026.9 0.0
09 20.03 ЮЗ 7-10
{10}
20 км 8/8 300 м
[]
+5.2 +2.9 85 -0 0 1028.5 1027.9
12 20.03 ЮЗ 7-9
{10}
20 км 9/0
[]
+6.5 +0.8 67 +2 +3 1028.4 1027.8
15 20.03 ЮЗ 7-10
{13}
20 км 10/0 2000 м
[]
+6.5 -0.7 60 +2 +2 1026.1 1025.5
18 20.03 З 9-12
{13}
4800 м слаб. дождь 10/10 300 м
[]
+5.3 +3.3 87 -1 -1 1025.6 1025.0 +7.4 0.8
21 20.03 З 8-11
{15}
5000 м дымка 10/10 50 м
[]
+4.9 +4.1 95 -1 -1 1025.0 1024.4
00 21.03 СЗ 5-8
{11}
3400 м дымка 10/10 50 м
[]
+4.1 +3.5 96 -1 -1 1025.8 1025.2 2
03 21.03 З 4-5
{8}
1200 м дымка 9/0
[]
+3.3 +2.9 97 -2 -2 1026.4 1025.8
06 21.03 З 6-8
{8}
700 м туман 10/0
[]
+3.3 +2.9 97 -3 -2 1027.3 1026.7 +3.3 2
09 21.03 З 6-9
{9}
3600 м дымка 9/9 50 м
[]
+4.1 +3.6 97 -2 -1 1028.1 1027.5
12 21.03 З 8-12
{12}
13 км 10/10 100 м
[]
+5.3 +4.5 95 -1 -1 1027.0 1026.4
15 21.03 З 10-14
{14}
4600 м дымка 10/10 100 м
[]
+6.6 +5.9 95 +1 +1 1024.5 1023.9
18 21.03 З 8-12
{16}
500 м туман 10/0
[]
+5.5 +4.8 95 -0 -0 1024.2 1023.6 +6.8
21 21.03 З 6-10
{13}
500 м туман 10/0
[]
+5.3 +4.8 97 0 0 1024.2 1023.6
00 22.03 З 6-10
{15}
3900 м дымка 10/10 100 м
[]
+6.2 +5.6 96 +1 +1 1024.1 1023.5
03 22.03 СЗ 5-7
{12}
8000 м дымка 10/10 200 м
[]
+6.0 +4.9 93 +2 +2 1026.3 1025.7
06 22.03 С 3-6
{7}
18 км ясно +5.0 +3.8 92 +1 +2 1029.8 1029.2 +3.9
09 22.03 СЗ 5-7
{10}
20 км ясно +7.4 -1.7 52 +4 +8 1032.6 1032.0
12 22.03 СЗ 6-9
{9}
20 км ясно +8.0 +1.4 63 +4 +7 1033.2 1032.6
15 22.03 СЗ 5-6
{9}
20 км ясно +7.3 -0.5 58 +4 +4 1032.7 1032.1
18 22.03 С 2-3
{6}
15 км ясно +1.4 -0.8 85 -2 -2 1032.9 1032.2 +8.4
21 22.03 штиль 0
{3}
19 км ясно -0.1 -1.3 92 -1 -1 1032.1 1031.4
00 23.03 Ю 1-2
{2}
4600 м туман местами ясно -2.1 -3.2 92 -4 -4 1030.9 1030.2
03 23.03 ЮВ 3-5
{5}
18 км ясно -0.2 -1.6 90 -5 -5 1028.8 1028.1
09 23.03 Ю 4-6
{6}
20 км 10/10 600 м
[]
+7.2 -0.4 58 +4 +4 1025.3 1024.7
15 23.03 З 4-7
{9}
11 км 10/10 600 м
[]
+9.7 +5.9 77 +7 +7 1021.1 1020.5
21 23.03 З 6-10
{10}
8000 м дымка 3/0
[]
+4.5 +2.7 88 -1 -1 1020.9 1020.3

 

Местоположение метеостанции Шилуте (Литва): широта 55.35 долгота 21.45 высота над уровнем моря 56 м.

В архиве по умолчанию представлена погода в Шилуте за последнюю неделю. Архивные данные за месяц целиком и за предыдущие месяцы, начиная с января 2011 года, Вы можете получить, выбрав интересующий диапазон дат из раскрывающегося списка и нажав кнопку "Ввод!".


*Определитесь, кто Вы:
робот инопланетянин человек

Внимание! Время в таблицах - всемирное. Для получения местного времени необходимо прибавить поправку, которая равна 2 ч.

Смотрите также архив погоды в соседних городах и на ближайших метеорологических станциях:

Погода в Ниде (Литва) (27 км)
Погода в Советске (Калининградская область, Россия) (43 км)
Погода в Рыбачем (Калининградская область, Россия) (44 км)
Погода в Kлайпеде (Литва) (49 км)
Погода в Лаукуве (Литва) (58 км)
Погода в Черняховске (Калининградская область, Россия) (83 км)
Погода в Тельшяе (Литва) (85 км)
Погода в Калининграде (Калининградская область, Россия) (90 км)
Погода в Пионерском (Калининградская область, Россия) (91 км)
Погода в Рыбном Порту (Калининградская область, Россия) (96 км)

Пояснения к столбцам:

Ветер - указаны скорость ветра в м/с - средняя за 10 мин, порывы в срок и между сроками (в фигурных скобках) и направление, откуда дует ветер: С - северный, СВ - северо-восточный, В - восточный, ЮВ - юго-восточный, Ю - южный, ЮЗ - юго-западный, З - западный, СЗ - северо-западный.
Видимость - горизонтальная дальность видимости в метрах или километрах. При видимости от 1 до 10 км при отсутствии осадков обычно наблюдается дымка, при ухудшении видимости до 1 км и менее - туман. В сухую погоду видимость может ухудшаться дымом, пылью или мглою.
Явления - указаны атмосферные явления, наблюдавшиеся в срок или в последний час перед сроком; фигурными скобками обозначены явления, наблюдавшиеся между сроками (за 1-3 часа до срока); квадратными скобками обозначены град или гололедные отложения с указанием их диаметра в мм.
Облачность - указаны через наклонную черту общая и нижняя облачность в баллах и высота нижней границы облаков в метрах; квадратными скобками обозначены формы облаков: Ci - перистые, Cs - перисто-слоистые, Cc - перисто-кучевые, Ac - высококучевые, As - высокослоистые, Sc - слоисто-кучевые, Ns - слоисто-дождевые, Cu - кучевые, Cb - кучево-дождевые. Подробнее классификацию облаков см. в Атласе облаков (PDF).
T - Температура воздуха - температура, измеренная на высоте 2 м над землей.
Td - Температура точки росы - температура, при понижении до которой содержащийся в воздухе водяной пар достигнет насыщения.
f - Относительная влажность воздуха - влажноcть воздуха, измеренная на высоте 2 м над землей.
Te - Эффективная температура - температура, которую ощущает одетый по сезону человек в тени. Характеристика душности погоды. При расчете учитывается влияние влажности воздуха и скорости ветра на теплоощущения человека.
Tes - Эффективная температура на солнце - температура, которую ощущает человек, с поправкой на солнечный нагрев. Характеристика знойности погоды. Зависит от высоты солнца над горизонтом, облачности и скорости ветра. Ночью, в пасмурную погоду, а также при ветре 12 м/с и более поправка равна нулю.
P - Атмосферное давление - приведенное к уровню моря атмосферное давление.
Po - Атмосферное давление - измеренное на уровне метеостанции атмосферное давление.
Tmin - Минимальная температура - минимум температуры воздуха на высоте 2 м над землей.
Tmax - Максимальная температура - максимум температуры воздуха на высоте 2 м над землей.
R - Количество осадков - Количество выпавших осадков за период времени, мм. При наведении курсора мыши на число - период времени, за который выпало указанное количество осадков.
R24 - Количество осадков - Количество выпавших осадков за 24 часа, мм.
S - Снежный покров - Высота снежного покрова, см. При наведении курсора мыши на число - состояние снежного покрова и степень покрытия местности в баллах.